User: anonymous   Login
Location: Newark
(33.6333°S, 78.8500°W)
Time: 08:45:41
(UTC+00:00)
Language:

Tiros 1 - Orbit

View from above orbital plane
View from above orbital plane
View from above satellite
View from above satellite

Ground track
Ground track

The orbit data is extracted from the following two-line orbital elements,

1    29U 60002B   19261.88585952 -.00000129 +00000-0 +11843-4 0  9992
2    29 048.3793 154.9125 0023681 147.2950 212.9433 14.74317920178325
Epoch (UTC): 18 September 2019 21:15:38
Eccentricity: 0.0023681
inclination: 48.3793°
perigee height: 630 km
apogee height: 664 km
right ascension of ascending node: 154.9125°
argument of perigee: 147.2950°
revolutions per day: 14.74317920
mean anomaly at epoch: 212.9433°
orbit number at epoch: 17832

The dashed part of the orbit path shows where the satellite is in the earth's shadow,  

DLR